Погода в Карабихе

Россия / Ярославская область     57°30′25″N   39°45′53″E
темп.,
°C
ветер,
м/с
пор.,
м/с
влажн.,
%
обл.,
%
осадки,
мм/ч
давл.,
гПа
погр.,
м
28 октября, чт
чт2800:00+6з6128596 0.1 1009727
03:00+4зюз5109161 0.2 1009376
06:00+4юз41092100 0.0 1008392
09:00+4ю3795100 1.4 1007357
12:00+5ююз1496100 1.1 1008193
15:00+5с4895100 1.5 1011769
18:00+5ссз4991100 0.1 1016440
21:00+4ссв468883 0.1 1019375
29 октября, пт
пт2900:00+1ссв239415 0.0 1022103
03:00−1в2289100 0.0 102434
06:000ююв2385100 0.0 1024100
09:00+2ю4989100 0.0 1024271
12:00+5ююз61388100 0.5 1022654
15:00+5юз71387100 0.8 1020604
18:00+6юз61391100 0.0 1020472
21:00+6юз5129525 0.0 1020302
30 октября, сб
сб3000:00+6юз5129589 0.0 1020282
03:00+7зюз61590100 0.0 1020368
06:00+7зюз61591100 0.0 1020352
09:00+8зюз6148996 0.0 1021395
12:00+11зюз613775 0.0 1022573
15:00+11зюз5117715 0.0 1022622
18:00+8зюз410925 0.0 1023225
21:00+8юз4109587 0.0 1023232
31 октября, вс
вс3100:00+8юз4119312 0.0 1023279
03:00+6юз411895 0.0 1024276
06:00+5юз5129026 0.0 1023278
09:00+6юз5138364 0.0 1023383
12:00+9зюз6116790 0.0 1023495
15:00+10юз5116880 0.0 1022501
18:00+7юз5128150 0.0 1022305
21:00+6юз5138621 0.0 1022322
1 ноября, пн
пн100:00+5юз512885 0.0 1022294
03:00+4юз5128892 0.0 1021293
06:00+4юз5128897 0.0 1021294
09:00+4юз5128699 0.0 1021335
12:00+8зюз51071100 0.0 1021424
15:00+9юз497057 0.0 1020388
18:00+5юз488564 0.0 1021148
21:00+4юз378873 0.0 1021121